Location: Port-Aux-Quilles Astronomical Observatory
(47.9769°N, 69.9642°W)
Time: 19:01:24
(UTC-05:00)

Envisat - Pass Details

Date: 28 October 2019
Orbit: 764 x 766 km, 98.1° (Epoch: 16 November)

Event Time Altitude Azimuth Distance (km) Brightness Sun altitude
Rises 18:33:16 0° 164° (SSE) 3,220 6.1 -11.4°
Reaches altitude 10° 18:35:33 10° 165° (SSE) 2,298 5.4 -11.8°
Maximum altitude 18:40:38 89° 258° (WSW) 773 3.0 -12.6°
Drops below altitude 10° 18:45:45 10° 346° (NNW) 2,314 5.6 -13.5°
Sets 18:48:04 0° 347° (NNW) 3,245 6.4 -13.9°
